Omaha, NE

7:37 AM CST on January 24, 2017 (GMT -0600)
Millard Municipal

Weather History for KMLE - February, 2014

Change the Weather History Date:

Saturday, February 1, 2014

  Actual Average (KOFF) Record (KOFF)
Temperature  
Mean Temperature 18 °F -  
Max Temperature 25 °F 33 °F 60 °F (2012)
Min Temperature 12 °F 17 °F -5 °F (2013)
Degree Days  
Heating Degree Days 46    
Moisture  
Dew Point 13 °F    
Average Humidity 72    
Maximum Humidity 87    
Minimum Humidity 57    
Precipitation  
Precipitation 0.01 in - - ()
Sea Level Pressure  
Sea Level Pressure 30.07 in    
Wind  
Wind Speed 3 mph (NNW)    
Max Wind Speed 17 mph    
Max Gust Speed 24 mph    
Visibility 9 miles    
Events Snow    
Averages and records for this station are not official NWS values.
T = Trace of Precipitation, MM = Missing Value Source: NWS Daily Summary

Daily Weather History Graph

Daily Weather History Graph

Search for Another Location

Airport or City:

Trip Planner

Search our weather history database for the weather conditions in past years. The results will help you decide how hot, cold, wet, or windy it might be!

Date:

Astronomy

Feb. 01, 2014 Rise Set
Actual Time 7:35 AM CST 5:41 PM CST
Civil Twilight 7:06 AM CST 6:10 PM CST
Nautical Twilight 6:33 AM CST 6:43 PM CST
Astronomical Twilight 6:00 AM CST 7:15 PM CST
Moon 8:24 AM CST (2/1) 8:19 PM CST (2/1)
Length of Visible Light 11h 04m
Length of Day
10h 05m
Waxing Crescent, 5% of the Moon is Illuminated
Feb 1
Waxing Crescent
Feb 6
First Quarter
Feb 14
Full
Feb 22
Last Quarter
Mar 1
New

Hourly Weather History & Observations

Time (CST) Temp. Windchill Dew Point Humidity Pressure Visibility Wind Dir Wind Speed Gust Speed Precip Events Conditions
12:15 AM 20.8 °F - 17.6 °F 87% 29.96 in 4.0 mi Calm Calm - N/A Snow Light Snow
12:35 AM 21.2 °F - 17.4 °F 85% 29.96 in 4.0 mi Calm Calm - N/A Snow Light Snow
12:55 AM 21.2 °F - 17.6 °F 86% 29.96 in 2.5 mi Calm Calm - N/A Snow Light Snow
1:15 AM 21.2 °F - 17.8 °F 87% 29.95 in 4.0 mi Calm Calm - N/A Snow Light Snow
1:35 AM 21.2 °F - 18.0 °F 87% 29.94 in 4.0 mi Calm Calm - 0.01 in Snow Light Snow
1:55 AM 21.2 °F - 18.0 °F 87% 29.93 in 4.0 mi Calm Calm - 0.01 in Snow Light Snow
2:15 AM 21.2 °F - 17.4 °F 85% 29.94 in 5.0 mi Calm Calm - N/A Snow Light Snow
2:35 AM 21.2 °F - 17.1 °F 84% 29.94 in 7.0 mi Calm Calm - N/A Snow Light Snow
2:55 AM 21.2 °F - 17.4 °F 85% 29.94 in 7.0 mi Calm Calm - N/A Snow Light Snow
3:15 AM 21.0 °F - 17.1 °F 85% 29.93 in 7.0 mi Calm Calm - N/A Snow Light Snow
3:35 AM 21.0 °F - 17.2 °F 85% 29.92 in 7.0 mi Calm Calm - N/A Snow Light Snow
3:55 AM 20.7 °F - 16.5 °F 84% 29.91 in 7.0 mi Calm Calm - N/A Snow Light Snow
4:15 AM 20.7 °F - 16.7 °F 85% 29.91 in 10.0 mi Calm Calm - N/A Snow Light Snow
4:35 AM 20.5 °F - 16.3 °F 84% 29.92 in 10.0 mi Calm Calm - N/A Snow Light Snow
4:55 AM 20.3 °F - 16.3 °F 85% 29.93 in 7.0 mi Calm Calm - N/A Snow Light Snow
5:15 AM 20.3 °F - 16.3 °F 85% 29.94 in 7.0 mi Calm Calm - N/A Snow Light Snow
5:35 AM 20.7 °F - 16.3 °F 83% 29.93 in 7.0 mi Calm Calm - N/A Snow Light Snow
5:55 AM 20.3 °F - 16.7 °F 86% 29.93 in 2.0 mi Calm Calm - N/A Snow Light Snow
6:15 AM 20.1 °F - 16.3 °F 85% 29.93 in 4.0 mi Calm Calm - N/A Snow Light Snow
6:35 AM 20.1 °F - 16.3 °F 85% 29.93 in 5.0 mi Calm Calm - N/A Snow Light Snow
6:55 AM 19.9 °F - 15.8 °F 84% 29.94 in 7.0 mi Calm Calm - N/A Snow Light Snow
7:15 AM 19.8 °F - 15.8 °F 85% 29.95 in 10.0 mi Calm Calm - N/A Snow Light Snow
7:35 AM 19.4 °F - 15.8 °F 86% 29.95 in 10.0 mi Calm Calm - N/A   Clear
7:55 AM 19.4 °F - 15.8 °F 86% 29.96 in 10.0 mi Calm Calm - N/A   Scattered Clouds
8:15 AM 19.2 °F - 15.8 °F 87% 29.96 in 7.0 mi Calm Calm - N/A Snow Light Snow
8:35 AM 19.8 °F - 15.8 °F 85% 29.98 in 10.0 mi Calm Calm - N/A   Mostly Cloudy
8:55 AM 20.8 °F - 16.7 °F 84% 29.98 in 10.0 mi Calm Calm - N/A Snow Light Snow
9:15 AM 21.2 °F 16.4 °F 16.7 °F 83% 29.99 in 10.0 mi NW 3.5 mph - N/A   Overcast
9:35 AM 22.1 °F 15.9 °F 17.6 °F 83% 29.99 in 10.0 mi NW 4.6 mph - N/A   Overcast
9:55 AM 23.0 °F 15.8 °F 17.6 °F 80% 30.00 in 10.0 mi NW 5.8 mph - N/A   Overcast
10:15 AM 23.9 °F 16.8 °F 18.3 °F 79% 30.01 in 10.0 mi NW 5.8 mph - N/A   Overcast
10:35 AM 25.0 °F 19.3 °F 19.0 °F 78% 30.02 in 10.0 mi NNW 4.6 mph 17.3 mph N/A   Overcast
10:55 AM 25.5 °F 18.7 °F 18.0 °F 73% 30.03 in 10.0 mi NNW 5.8 mph 16.1 mph N/A   Overcast
11:15 AM 24.8 °F 14.0 °F 16.7 °F 71% 30.04 in 10.0 mi NNW 11.5 mph 17.3 mph N/A   Overcast
11:35 AM 24.4 °F 14.2 °F 13.8 °F 64% 30.04 in 10.0 mi North 10.4 mph 20.7 mph N/A   Overcast
11:55 AM 25.0 °F 12.6 °F 14.5 °F 65% 30.04 in 10.0 mi NNW 15.0 mph 18.4 mph N/A   Scattered Clouds
12:15 PM 24.1 °F 12.0 °F 13.3 °F 63% 30.05 in 10.0 mi NNW 13.8 mph 19.6 mph N/A   Clear
12:35 PM 23.7 °F 12.1 °F 14.0 °F 66% 30.05 in 10.0 mi NW 12.7 mph 19.6 mph N/A   Clear
12:55 PM 23.7 °F 12.6 °F 13.6 °F 65% 30.06 in 10.0 mi NW 11.5 mph 19.6 mph N/A   Scattered Clouds
1:15 PM 24.3 °F 10.8 °F 13.3 °F 63% 30.06 in 10.0 mi NW 17.3 mph - N/A   Clear
1:35 PM 24.3 °F 12.7 °F 13.6 °F 64% 30.06 in 10.0 mi NNW 12.7 mph 20.7 mph N/A   Clear
1:55 PM 24.4 °F 13.5 °F 13.1 °F 62% 30.06 in 10.0 mi NNW 11.5 mph 20.7 mph N/A   Clear
2:15 PM 24.6 °F 11.3 °F 12.9 °F 61% 30.06 in 10.0 mi NW 17.3 mph 21.9 mph N/A   Clear
2:35 PM 24.4 °F 12.4 °F 12.0 °F 59% 30.06 in 10.0 mi NW 13.8 mph 24.2 mph N/A   Clear
2:55 PM 24.1 °F 11.0 °F 10.9 °F 57% 30.06 in 10.0 mi NNW 16.1 mph 23.0 mph N/A   Clear
3:15 PM 23.9 °F 10.3 °F 11.3 °F 59% 30.07 in 10.0 mi NNW 17.3 mph 24.2 mph N/A   Clear
3:35 PM 23.5 °F 10.8 °F 10.9 °F 59% 30.08 in 10.0 mi North 15.0 mph 23.0 mph N/A   Clear
3:55 PM 23.5 °F 11.8 °F 10.4 °F 57% 30.09 in 10.0 mi NNW 12.7 mph 20.7 mph N/A   Clear
4:15 PM 22.5 °F 9.4 °F 9.5 °F 58% 30.11 in 10.0 mi NW 15.0 mph 19.6 mph N/A   Clear
4:35 PM 22.5 °F 10.5 °F 9.3 °F 57% 30.13 in 10.0 mi NNW 12.7 mph 19.6 mph N/A   Clear
4:55 PM 22.1 °F 11.3 °F 9.0 °F 57% 30.13 in 10.0 mi NNW 10.4 mph 20.7 mph N/A   Clear
5:15 PM 21.2 °F 10.1 °F 8.6 °F 58% 30.14 in 10.0 mi NNW 10.4 mph 17.3 mph N/A   Clear
5:35 PM 20.5 °F 10.0 °F 8.2 °F 59% 30.15 in 10.0 mi NNW 9.2 mph 19.6 mph N/A   Clear
5:55 PM 20.3 °F 8.3 °F 8.2 °F 60% 30.16 in 10.0 mi NNW 11.5 mph 19.6 mph N/A   Clear
6:15 PM 19.6 °F 8.9 °F 7.7 °F 60% 30.18 in 10.0 mi NNW 9.2 mph 19.6 mph N/A   Clear
6:35 PM 19.0 °F 8.2 °F 7.2 °F 60% 30.19 in 10.0 mi NNW 9.2 mph 16.1 mph N/A   Clear
6:55 PM 18.5 °F 8.4 °F 6.8 °F 60% 30.21 in 10.0 mi NNW 8.1 mph - N/A   Clear
7:15 PM 18.0 °F 8.7 °F 6.4 °F 61% 30.22 in 10.0 mi NNW 6.9 mph - N/A   Clear
7:35 PM 17.6 °F 9.3 °F 5.9 °F 60% 30.23 in 10.0 mi North 5.8 mph - N/A   Clear
7:55 PM 17.1 °F 8.7 °F 5.9 °F 62% 30.24 in 10.0 mi NNW 5.8 mph - N/A   Scattered Clouds
8:15 PM 16.7 °F 9.6 °F 5.9 °F 63% 30.25 in 10.0 mi NNW 4.6 mph - N/A   Mostly Cloudy
8:35 PM 16.7 °F 9.6 °F 5.9 °F 63% 30.26 in 10.0 mi NNW 4.6 mph - N/A   Overcast
8:55 PM 16.5 °F 9.4 °F 5.9 °F 63% 30.26 in 10.0 mi NNW 4.6 mph - N/A   Overcast
9:15 PM 16.2 °F 10.6 °F 5.7 °F 64% 30.26 in 10.0 mi North 3.5 mph - N/A   Mostly Cloudy
9:35 PM 15.8 °F 8.6 °F 5.5 °F 64% 30.28 in 10.0 mi North 4.6 mph - N/A   Scattered Clouds
9:55 PM 15.6 °F 10.0 °F 5.0 °F 63% 30.28 in 10.0 mi NNW 3.5 mph - N/A   Scattered Clouds
10:15 PM 14.9 °F 6.1 °F 4.6 °F 64% 30.29 in 10.0 mi North 5.8 mph - N/A   Clear
10:35 PM 14.4 °F - 4.1 °F 64% 30.29 in 10.0 mi Calm Calm - N/A   Clear
10:55 PM 13.6 °F - 3.9 °F 65% 30.29 in 10.0 mi Calm Calm - N/A   Clear
11:15 PM 13.5 °F - 3.6 °F 65% 30.30 in 10.0 mi Calm Calm - N/A   Clear
11:35 PM 12.9 °F 6.9 °F 3.2 °F 65% 30.30 in 10.0 mi NNW 3.5 mph - N/A   Clear
11:55 PM 12.2 °F - 3.0 °F 67% 30.30 in 10.0 mi Calm Calm - N/A   Clear